User: anonymous   Login
Location: Bismarck
(46.7731°N, 100.8200°W)
Time: 13:37:04
(UTC-05:00)
Language:

Landsat 7 - Orbit

View from above orbital plane
View from above orbital plane
View from above satellite
View from above satellite

Ground track
Ground track

The orbit data is extracted from the following two-line orbital elements,

1 25682U 99020A   16239.19023535  .00000031  00000-0  17025-4 0  9995
2 25682  98.2076 308.6246 0000917  84.5545 275.5785 14.57107496923630
Epoch (UTC): 26 August 2016 04:33:56
Eccentricity: 0.0000917
inclination: 98.2076°
perigee height: 702 km
apogee height: 703 km
right ascension of ascending node: 308.6246°
argument of perigee: 84.5545°
revolutions per day: 14.57107496
mean anomaly at epoch: 275.5785°
orbit number at epoch: 92363

The dashed part of the orbit path shows where the satellite is in the earth's shadow,  

DLR